[[{"header":{"parameterUnit":"m.s-1","parameterCategory":1,"la1":30.2991,"la2":30.254,"lo1":-89.0895,"lo2":-89.0444,"dy":0.0017,"dx":0.0017,"nx":28,"ny":28,"refTime":"2025-04-28T21:00:00:Z","depth":0,"parameterNumber":2,"parameterNumberName":"U-component_of_WINDS"},"data":[0,0,0,0,0,0,0,0,0,0,0,0,0,0,0,0,0,0,0,0,0,0,0,0,0,0,0,0,0,0,0,0,0,0,0,0,0,0,0,0,0,0,0,0,0,0,0,0,0,0,0,0,0,0,0,0,0,0,-1.3234,-1.3235,0,-1.3359,-1.3361,-1.3362,-1.3401,-1.3401,-1.34,-1.34,-1.3531,-1.3535,-1.3539,0,0,0,0,0,0,0,0,0,0,0,0,0,-1.303,-1.3034,-1.3233,-1.3235,-1.3237,-1.3359,-1.3361,-1.3363,-1.3401,-1.3401,-1.34,-1.3399,-1.353,-1.3534,-1.3539,0,0,0,0,0,0,0,0,0,0,0,0,0,-1.3134,-1.3035,-1.3233,-1.3271,-1.3275,-1.3359,-1.3361,-1.3363,-1.3402,-1.3401,-1.34,-1.3399,-1.3528,-1.3534,-1.354,-1.3596,0,0,-1.3559,-1.3561,0,0,0,0,0,0,0,0,-1.3128,-1.3141,-1.3264,-1.3268,-1.3274,-1.3364,-1.3337,-1.3441,-1.3402,-1.3354,-1.34,-1.3398,-1.3476,-1.3486,-1.3512,-1.3602,-1.3608,-1.3559,-1.3563,-1.3565,-1.3567,0,0,0,0,0,0,0,-1.3121,-1.3136,-1.3283,-1.3265,-1.3272,-1.3282,-1.3296,-1.3357,-1.3419,-1.3358,-1.3361,-1.3375,-1.3479,-1.3506,-1.3516,-1.361,-1.3559,-1.3564,-1.3568,-1.357,-1.3753,-1.3754,0,0,0,0,0,0,-1.3107,-1.313,-1.3279,-1.3287,-1.3197,-1.3287,-1.3302,-1.3336,-1.3418,-1.343,-1.3376,-1.3377,-1.3496,-1.3508,-1.352,-1.3592,-1.3565,-1.3571,-1.3575,-1.3752,-1.3753,-1.3755,0,0,0,0,0,0,-1.3102,-1.312,-1.3274,-1.3209,-1.323,-1.3291,-1.3329,-1.3339,-1.3366,-1.3432,-1.3443,-1.3392,-1.3496,-1.3512,-1.3577,-1.3597,-1.3574,-1.3579,-1.3751,-1.3752,-1.3754,-1.3735,0,0,0,0,0,0,-1.3096,-1.3118,-1.3139,-1.3209,-1.3233,-1.3328,-1.333,-1.3342,-1.3376,-1.3378,-1.345,-1.3461,-1.3496,-1.3568,-1.3583,-1.3605,-1.3584,-1.3749,-1.3751,-1.3754,-1.3734,-1.3736,-1.3737,0,0,0,0,0,-1.3089,-1.3129,-1.3139,-1.3157,-1.326,-1.3329,-1.3342,-1.3381,-1.3378,-1.34,-1.3442,-1.3459,-1.3592,-1.3574,-1.3592,-1.3616,-1.3748,-1.3751,-1.3753,-1.3733,-1.3736,-1.3737,0,0,0,0,0,0,-1.3059,-1.3138,-1.3151,-1.3215,-1.3265,-1.3335,-1.3364,-1.3382,-1.3435,-1.3435,-1.3482,-1.3498,-1.3559,-1.3594,-1.3572,-1.3675,-1.3671,-1.3677,-1.365,-1.3652,-1.3654,-1.3644,-1.3589,0,0,0,0,0,-1.306,-1.3108,-1.3175,-1.3225,-1.3249,-1.3302,-1.3333,-1.3359,-1.3413,-1.3434,-1.3481,-1.3534,-1.3588,-1.3622,-1.3675,-1.374,-1.3756,-1.3765,-1.3767,-1.3768,-1.3773,-1.381,-1.3815,-1.3764,-1.3764,-1.3764,0,0,-1.3062,-1.3112,-1.3139,-1.322,-1.3262,-1.3311,-1.332,-1.3372,-1.3409,-1.3443,-1.3507,-1.3543,-1.3605,-1.367,-1.3701,-1.3701,-1.3791,-1.3771,-1.3771,-1.3776,-1.3814,-1.3818,-1.3823,-1.3765,-1.3765,-1.3765,0,0,-1.3092,-1.3134,-1.318,-1.3221,-1.3284,-1.3319,-1.333,-1.3399,-1.3424,-1.3489,-1.3515,-1.3561,-1.3653,-1.3696,-1.373,-1.3777,-1.3794,-1.3793,-1.3802,-1.3838,-1.3842,-1.3846,-1.3863,-1.3869,-1.3798,-1.3798,-1.3798,0,-1.3087,-1.3162,-1.3202,-1.3253,-1.3288,-1.332,-1.3368,-1.3407,-1.3484,-1.3508,-1.3507,-1.3623,-1.3667,-1.3743,-1.3754,-1.378,-1.3795,-1.3785,-1.3838,-1.3842,-1.3846,-1.3864,-1.387,-1.3797,-1.3797,-1.3797,-1.3797,0,-1.3153,-1.3205,-1.3235,-1.3308,-1.3347,-1.3396,-1.3445,-1.348,-1.3502,-1.3538,-1.3605,-1.3659,-1.3723,-1.3744,-1.3766,-1.3824,-1.3822,-1.3828,-1.3825,-1.385,-1.3867,-1.3874,-1.3796,-1.3796,-1.3797,-1.3797,0,0,-1.3167,-1.3262,-1.3272,-1.3306,-1.3378,-1.3419,-1.3471,-1.3533,-1.3563,-1.3615,-1.366,-1.3737,-1.3744,-1.3783,-1.3811,-1.3843,-1.3877,-1.3846,-1.3848,-1.385,-1.3945,-1.3939,-1.3946,-1.389,-1.3891,-1.3892,-1.3939,0,-1.3206,-1.3298,-1.3336,-1.341,-1.3459,-1.3491,-1.3536,-1.3585,-1.3621,-1.3668,-1.3708,-1.3761,-1.3766,-1.379,-1.3823,-1.3866,-1.3897,-1.3863,-1.3933,-1.3935,-1.3916,-1.3954,-1.3949,-1.399,-1.3946,-1.3947,-1.3948,0,-1.3264,-1.3316,-1.3395,-1.3461,-1.3483,-1.3523,-1.3584,-1.3628,-1.3686,-1.371,-1.3753,-1.3779,-1.3836,-1.3829,-1.3908,-1.3884,-1.3915,-1.3941,-1.3944,-1.3952,-1.3943,-1.3964,-1.4005,-1.4011,-1.3959,-1.3958,-1.3957,0,-1.3266,-1.3356,-1.3416,-1.3444,-1.3523,-1.355,-1.3584,-1.3641,-1.3676,-1.373,-1.3754,-1.3814,-1.3847,-1.3894,-1.3936,-1.3927,-1.4012,-1.4008,-1.4033,-1.4032,-1.405,-1.4048,-1.4096,-1.4069,-1.4069,-1.4069,-1.4069,0,-1.3306,-1.3353,-1.3418,-1.3454,-1.3509,-1.3553,-1.3606,-1.3643,-1.3693,-1.3738,-1.3769,-1.3811,-1.3865,-1.3914,-1.3948,-1.4009,-1.4023,-1.4045,-1.4053,-1.4042,-1.4039,-1.4063,-1.4061,-1.4071,-1.407,-1.407,-1.407,0,-1.3318,-1.3363,-1.343,-1.3499,-1.3518,-1.3555,-1.3615,-1.3652,-1.3689,-1.3746,-1.3762,-1.382,-1.388,-1.3927,-1.4005,-1.4028,-1.4092,-1.4101,-1.4072,-1.4076,-1.4099,-1.4096,-1.4164,-1.4175,-1.414,-1.414,-1.4141,0,-1.3341,-1.3378,-1.3451,-1.3483,-1.3517,-1.3568,-1.3604,-1.365,-1.3687,-1.3755,-1.3784,-1.3846,-1.3898,-1.3992,-1.4042,-1.4102,-1.4113,-1.4133,-1.4122,-1.411,-1.4114,-1.4111,-1.4115,-1.4134,-1.4134,-1.4134,-1.4134,0,-1.3376,-1.3396,-1.3447,-1.3506,-1.3548,-1.3597,-1.3647,-1.3671,-1.3726,-1.3766,-1.3827,-1.3867,-1.3946,-1.4007,-1.4073,-1.411,-1.4132,-1.4137,-1.4146,-1.4135,-1.4117,-1.4127,-1.4075,-1.4135,-1.4135,-1.4135,-1.4135,-1.4135,-1.3395,-1.3429,-1.3486,-1.3542,-1.3584,-1.3629,-1.3668,-1.3709,-1.376,-1.3828,-1.3852,-1.3915,-1.3973,-1.4063,-1.41,-1.4151,-1.4152,-1.4165,-1.4169,-1.4171,-1.417,-1.4108,-1.4163,-1.4163,-1.4163,-1.4163,-1.4163,0,-1.3432,-1.347,-1.3521,-1.3589,-1.3633,-1.3648,-1.3704,-1.3741,-1.3795,-1.3847,-1.3897,-1.3967,-1.4027,-1.4082,-1.4144,-1.4174,-1.4186,-1.4189,-1.4188,-1.4196,-1.4165,-1.4151,-1.4179,-1.4179,-1.4179,-1.4179,-1.4179,-1.4179,-1.3456,-1.3516,-1.3543,-1.3624,-1.3663,-1.3723,-1.3754,-1.3797,-1.3838,-1.3915,-1.3965,-1.4,-1.4053,-1.412,-1.4176,-1.419,-1.4212,-1.4213,-1.423,-1.42,-1.4198,-1.4196,-1.4183,-1.4217,-1.4217,-1.4257,-1.4258,-1.4258]},{"header":{"parameterUnit":"m.s-1","parameterCategory":1,"la1":30.2991,"la2":30.254,"lo1":-89.0895,"lo2":-89.0444,"dy":0.0017,"dx":0.0017,"nx":28,"ny":28,"refTime":"2025-04-28T21:00:00:Z","depth":0,"parameterNumber":3,"parameterNumberName":"V-component_of_WINDS"},"data":[0,0,0,0,0,0,0,0,0,0,0,0,0,0,0,0,0,0,0,0,0,0,0,0,0,0,0,0,0,0,0,0,0,0,0,0,0,0,0,0,0,0,0,0,0,0,0,0,0,0,0,0,0,0,0,0,0,0,4.0478,4.0478,0,4.0491,4.0491,4.0491,4.0441,4.0439,4.0438,4.0436,4.0448,4.045,4.0451,0,0,0,0,0,0,0,0,0,0,0,0,0,4.0409,4.041,4.0478,4.0478,4.0479,4.0491,4.0491,4.0491,4.0441,4.0439,4.0438,4.0436,4.0447,4.0449,4.0452,0,0,0,0,0,0,0,0,0,0,0,0,0,4.0432,4.0411,4.0478,4.0455,4.0453,4.0491,4.0491,4.0491,4.0441,4.0439,4.0437,4.0435,4.0447,4.0449,4.0452,4.0512,0,0,4.046,4.0461,0,0,0,0,0,0,0,0,4.0431,4.0435,4.0458,4.0457,4.0455,4.0462,4.0471,4.0498,4.0442,4.0446,4.0436,4.0434,4.0454,4.0456,4.0463,4.0512,4.0513,4.046,4.0461,4.0462,4.0463,0,0,0,0,0,0,0,4.0429,4.0434,4.0483,4.0459,4.0456,4.0443,4.0444,4.0476,4.0462,4.0445,4.0442,4.0444,4.0453,4.0461,4.0463,4.0513,4.046,4.0462,4.0463,4.0464,4.061,4.0612,0,0,0,0,0,0,4.0431,4.0433,4.0483,4.0484,4.0437,4.0446,4.0447,4.0462,4.0462,4.046,4.0446,4.0442,4.0458,4.046,4.0463,4.0532,4.0462,4.0465,4.0466,4.0608,4.0611,4.0613,0,0,0,0,0,0,4.043,4.0436,4.0482,4.0457,4.0462,4.045,4.0467,4.0463,4.0471,4.0462,4.046,4.0457,4.0456,4.046,4.05,4.0532,4.0466,4.0468,4.0605,4.0609,4.0612,4.0671,0,0,0,0,0,0,4.0428,4.0436,4.0459,4.0458,4.0464,4.0519,4.0469,4.0465,4.0476,4.047,4.0472,4.047,4.0455,4.0496,4.0502,4.0534,4.047,4.0602,4.0607,4.0611,4.0666,4.0676,4.0684,0,0,0,0,0,4.0425,4.0475,4.046,4.0467,4.0492,4.0521,4.0524,4.0506,4.0479,4.0501,4.0496,4.047,4.0528,4.0501,4.0507,4.054,4.06,4.0605,4.061,4.0662,4.0674,4.0684,0,0,0,0,0,0,4.048,4.0475,4.0458,4.0509,4.0516,4.0513,4.0541,4.052,4.0534,4.0529,4.0505,4.0506,4.055,4.0549,4.0519,4.0597,4.0559,4.0566,4.0596,4.0607,4.0616,4.0615,4.0472,0,0,0,0,0,4.0498,4.0522,4.0516,4.0561,4.0566,4.0553,4.0565,4.055,4.0556,4.0559,4.0556,4.0562,4.0581,4.0595,4.0612,4.0666,4.0665,4.0692,4.0701,4.0709,4.0714,4.0741,4.0753,4.063,4.063,4.063,0,0,4.0535,4.0535,4.0552,4.0572,4.0576,4.06,4.0556,4.0584,4.0601,4.0563,4.06,4.0598,4.0604,4.065,4.0671,4.0651,4.0748,4.0716,4.0722,4.0723,4.0748,4.0759,4.077,4.0634,4.0633,4.0633,0,0,4.0614,4.0618,4.0655,4.066,4.0666,4.0657,4.0666,4.0666,4.0663,4.07,4.0671,4.0692,4.0726,4.0731,4.0737,4.0819,4.0795,4.0825,4.0873,4.0899,4.0909,4.0917,4.0944,4.0954,4.0831,4.0831,4.0831,0,4.0659,4.0696,4.0677,4.0707,4.0716,4.0683,4.0719,4.0725,4.0736,4.0743,4.0721,4.0763,4.0765,4.0811,4.0831,4.0838,4.0847,4.0824,4.0909,4.0917,4.0925,4.095,4.0961,4.0835,4.0834,4.0834,4.0834,0,4.075,4.0776,4.0805,4.0817,4.0829,4.0863,4.0848,4.0863,4.0848,4.0841,4.0878,4.0879,4.0895,4.0906,4.0891,4.095,4.0938,4.0913,4.0873,4.094,4.0964,4.0973,4.084,4.0839,4.0838,4.0837,0,0,4.0863,4.0864,4.0875,4.0879,4.0883,4.0902,4.0934,4.095,4.0962,4.0972,4.0996,4.1026,4.1003,4.1011,4.0997,4.102,4.1082,4.0992,4.0992,4.1007,4.1145,4.1161,4.1173,4.1067,4.1069,4.107,4.1143,0,4.094,4.0993,4.0977,4.1031,4.1053,4.1022,4.1049,4.1054,4.1048,4.1066,4.106,4.1081,4.105,4.1054,4.1076,4.107,4.1109,4.1065,4.1088,4.1089,4.1086,4.1186,4.1204,4.1273,4.1153,4.1154,4.1155,0,4.1036,4.1048,4.1104,4.1103,4.1112,4.1137,4.115,4.1168,4.1172,4.1167,4.1175,4.1156,4.1186,4.1148,4.1188,4.1158,4.1167,4.1166,4.1168,4.1168,4.1125,4.1186,4.1295,4.1304,4.117,4.1169,4.1168,0,4.111,4.1141,4.1178,4.1183,4.1184,4.1201,4.1202,4.1205,4.1215,4.1227,4.1233,4.1248,4.1255,4.1267,4.1252,4.1226,4.1293,4.1255,4.1288,4.1289,4.1302,4.1301,4.1411,4.1312,4.1312,4.1311,4.1311,0,4.1196,4.1231,4.1211,4.1234,4.1272,4.1253,4.129,4.1288,4.129,4.1311,4.1286,4.1306,4.1285,4.1303,4.1292,4.1325,4.133,4.1325,4.1321,4.1326,4.1326,4.133,4.1324,4.1314,4.1313,4.1313,4.1312,0,4.1285,4.1273,4.1311,4.1308,4.1308,4.1336,4.1333,4.1354,4.1346,4.1373,4.1378,4.1367,4.1386,4.1373,4.1393,4.1385,4.1429,4.1419,4.1427,4.1424,4.1457,4.1453,4.1572,4.1586,4.1479,4.148,4.1481,0,4.134,4.1365,4.1365,4.1377,4.138,4.14,4.141,4.1392,4.1404,4.1411,4.143,4.1448,4.1461,4.1494,4.1487,4.1501,4.1491,4.1531,4.1493,4.1496,4.1489,4.1487,4.1488,4.1538,4.154,4.1541,4.1542,0,4.1437,4.143,4.1446,4.146,4.1472,4.1483,4.149,4.1502,4.1484,4.1498,4.1518,4.1528,4.1548,4.1565,4.1577,4.1577,4.1556,4.1554,4.1562,4.1566,4.1569,4.1566,4.1446,4.1551,4.155,4.1549,4.1549,4.1548,4.1509,4.153,4.1533,4.1551,4.1555,4.1563,4.1581,4.1576,4.1592,4.1607,4.1595,4.1619,4.1622,4.1636,4.1639,4.1656,4.1639,4.1652,4.1655,4.1657,4.1661,4.1568,4.1659,4.1658,4.1658,4.1658,4.1658,0,4.1603,4.1603,4.162,4.1632,4.1646,4.1626,4.1633,4.1646,4.1667,4.1671,4.1684,4.1707,4.1723,4.1718,4.1732,4.1747,4.1737,4.1751,4.1749,4.1749,4.1676,4.1667,4.1758,4.1758,4.1758,4.1758,4.1758,4.1758,4.1654,4.1688,4.1681,4.1716,4.1715,4.1738,4.1744,4.175,4.1754,4.1779,4.1793,4.1789,4.179,4.1804,4.1818,4.1816,4.1821,4.1838,4.1832,4.1764,4.1754,4.1745,4.1735,4.184,4.184,4.1903,4.1904,4.1904]}]]